sat.trackr.live / text

‹ back to catalog

STARLINK-5599

NORAD 55766 · 2023-028AB

PAYLOAD ACTIVE UNKNOWN

§ Identity

Operator
Country
US
Launch date
2023-03-03
Launch site
AFWTR
Launch vehicle
Mass (kg)
RCS (m²)

Purposes: comms

External: N2YO · Heavens-Above · Gunter

§ Orbital elements

Epoch: 2026-05-25T03:13:44.033088Z

Period
96.11 min
Inclination
70.0002°
Eccentricity
0.0002786
Mean motion
14.98332210 rev/d
Perigee alt
570.1 km
Apogee alt
574.0 km
Semi-major
6,950.2 km
B*
-2.0772e-5
RAAN
31.7214°
Arg perigee
268.1989°
Mean anomaly
91.8851°
Rev number
17,798

§ Raw data

STARLINK-55991 55766U 23028AB  26145.13453742 -.00000341  00000+0 -20772-4 0  99922 55766  70.0002  31.7214 0002786 268.1989  91.8851 14.98332210177981

JSON: /api/v1/satellites/55766 · /tle

For live sub-satellite position, see the globe view (requires WebGL).

§ Visibility from observer

Set your observer location to see the next 7 days of passes ≥ 10°. The values pass through the URL so the page stays shareable.

No JS? Fill the form by hand. The geolocation button needs JavaScript.